DW0542 Weather Reports


Display with metric or nautical units.
time (UTC)temp
F
wind
direction
speed
MPH
gust
MPH
rain 1hr
in
rain 24hr
in
rain mn
in
humidity
%
barometer
mb
20210618170007 75 222 1.0 13.0 0.00 0.04 0.04 44 1014.4
20210618164842 75 197 0.0 8.0 0.00 0.04 0.04 44 1014.5
20210618163239 75 205 0.0 9.0 0.00 0.04 0.04 47 1014.6
20210618161624 75 197 0.0 8.0 0.00 0.04 0.04 47 1014.8
20210618160059 73 198 0.0 11.0 0.00 0.04 0.04 46 1015.0
20210618154652 73 281 2.0 10.0 0.00 0.04 0.04 47 1014.9
20210618151734 73 238 0.0 9.0 0.00 0.04 0.04 44 1015.4
20210618150145 72 204 0.0 6.0 0.00 0.04 0.04 46 1015.5
20210618144654 72 195 4.0 10.0 0.00 0.04 0.04 45 1015.2
20210618143058 71 222 0.0 7.0 0.00 0.04 0.04 54 1015.7
20210618141541 70 224 0.0 4.0 0.00 0.04 0.04 55 1015.8
20210618140034 69 211 0.0 5.0 0.00 0.04 0.04 55 1015.8
20210618134528 68 258 0.0 4.0 0.00 0.04 0.04 57 1015.9
20210618133022 67 227 0.0 0.0 0.00 0.04 0.04 60 1016.1
20210618131547 64 222 0.0 0.0 0.00 0.04 0.04 67 1016.4
20210618130008 63 288 0.0 0.0 0.00 0.04 0.04 70 1016.5
20210618124510 62 288 0.0 0.0 0.00 0.04 0.04 73 1016.4
20210618121751 60 288 0.0 0.0 0.02 0.04 0.04 78 1016.8
20210618120159 58 288 0.0 0.0 0.03 0.04 0.04 82 1016.8
20210618114655 57 288 0.0 0.0 0.04 0.04 0.04 84 1016.8
20210618113117 56 288 0.0 0.0 0.04 0.04 0.04 87 1017.0
20210618111557 53 290 0.0 0.0 0.02 0.02 0.02 91 1017.1
20210618110108 51 291 0.0 0.0 0.01 0.01 0.01 91 1016.9
20210618104612 50 292 0.0 0.0 0.00 0.00 0.00 91 1017.0
20210618103121 49 293 0.0 0.0 0.00 0.00 0.00 91 1016.8
20210618101538 49 293 0.0 0.0 0.00 0.00 0.00 91 1017.0
20210618100052 48 293 0.0 0.0 0.00 0.00 0.00 90 1016.8
20210618094652 48 293 0.0 0.0 0.00 0.00 0.00 90 1016.8
20210618093043 48 293 0.0 0.0 0.00 0.00 0.00 90 1016.8
20210618090043 48 293 0.0 0.0 0.00 0.00 0.00 90 1016.4
20210618084552 48 293 0.0 0.0 0.00 0.00 0.00 90 1016.4
20210618083023 49 293 0.0 0.0 0.00 0.00 0.00 90 1016.4
20210618081531 49 293 0.0 0.0 0.00 0.00 0.00 89 1016.2
20210618080018 49 293 0.0 0.0 0.00 0.00 0.00 89 1016.2
20210618074518 50 293 0.0 0.0 0.00 0.00 0.00 89 1016.2
20210618071526 50 293 0.0 0.0 0.00 0.00 0.00 88 1016.0
20210618070006 50 293 0.0 0.0 0.00 0.00 0.00 88 1016.0
20210618064505 50 293 0.0 0.0 0.00 0.00 0.00 88 1015.9
20210618063005 51 293 0.0 0.0 0.00 0.00 0.00 88 1015.7
20210618061508 51 293 0.0 0.0 0.00 0.00 0.00 87 1015.7
20210618060059 51 293 0.0 0.0 0.00 0.00 0.00 86 1015.8
20210618054548 52 293 0.0 0.0 0.00 0.00 0.00 86 1015.7
20210618053029 52 293 0.0 0.0 0.00 0.00 0.00 85 1015.9
20210618051555 52 293 0.0 0.0 0.00 0.00 0.00 85 1015.8
20210618050032 52 293 0.0 0.0 0.00 0.00 0.00 85 1016.0
20210618044544 53 293 0.0 0.0 0.00 0.00 0.00 83 1015.9
20210618043021 53 293 0.0 0.0 0.00 0.00 0.00 83 1015.9
20210618041515 54 293 0.0 0.0 0.00 0.00 0.00 82 1015.8
20210618040022 54 293 0.0 0.0 0.00 0.00 0.00 82 1015.7
20210618034522 54 293 0.0 0.0 0.00 0.00 0.00 82 1015.6
20210618033013 54 293 0.0 0.0 0.00 0.00 0.00 81 1015.6
20210618031503 55 293 0.0 0.0 0.00 0.00 0.00 81 1015.5
20210618030001 55 293 0.0 0.0 0.00 0.00 0.00 79 1015.4
20210618021601 57 293 0.0 0.0 0.00 0.00 0.00 76 1015.2
20210618020146 58 293 0.0 0.0 0.00 0.00 0.00 74 1015.2
20210618014744 59 293 0.0 0.0 0.00 0.00 0.00 72 1015.0
20210618011701 60 293 0.0 0.0 0.00 0.00 0.00 65 1014.6
20210618010140 62 293 0.0 0.0 0.00 0.00 0.00 63 1014.3
20210618004714 63 293 0.0 0.0 0.00 0.00 0.00 60 1014.0
20210618001630 69 293 0.0 0.0 0.00 0.00 0.00 52 1013.6
20210618000241 72 293 0.0 0.0 0.00 0.00 0.00 46 1013.5
20210617234706 73 293 0.0 3.0 0.00 0.00 0.00 41 1013.4
20210617233129 73 296 1.0 9.0 0.00 0.00 0.00 41 1013.4
20210617231558 73 316 4.0 12.0 0.00 0.00 0.00 41 1013.3
20210617230126 73 335 5.0 11.0 0.00 0.00 0.00 39 1013.4
20210617224629 73 315 5.0 12.0 0.00 0.00 0.00 40 1013.3
20210617223135 73 329 8.0 12.0 0.00 0.00 0.00 43 1013.3
20210617221613 73 296 4.0 12.0 0.00 0.00 0.00 42 1013.1
20210617220135 73 279 4.0 10.0 0.00 0.00 0.00 44 1013.0
20210617214629 73 299 1.0 9.0 0.00 0.00 0.00 41 1012.9
20210617213122 73 254 4.0 10.0 0.00 0.00 0.00 44 1012.9
20210617211559 73 293 7.0 10.0 0.00 0.00 0.00 44 1012.9
20210617210218 73 303 7.0 14.0 0.00 0.00 0.00 44 1012.9
20210617204608 72 298 2.0 9.0 0.00 0.00 0.00 40 1012.8
20210617203217 72 299 0.0 12.0 0.00 0.00 0.00 38 1012.9
20210617201619 72 289 3.0 9.0 0.00 0.00 0.00 42 1012.7
20210617200050 72 311 3.0 8.0 0.00 0.00 0.00 39 1012.8
20210617193046 72 287 2.0 11.0 0.00 0.00 0.00 43 1013.1
20210617184626 71 296 9.0 13.0 0.00 0.00 0.00 42 1013.2
20210617183153 70 324 7.0 13.0 0.00 0.00 0.00 43 1013.3
20210617181642 70 295 8.0 13.0 0.00 0.00 0.00 48 1013.3
20210617180102 70 259 0.0 10.0 0.00 0.00 0.00 41 1013.4
20210617174651 69 290 0.0 13.0 0.00 0.00 0.00 45 1013.5
20210617173137 69 313 8.0 16.0 0.00 0.00 0.00 42 1013.6
20210617171626 69 299 3.0 18.0 0.00 0.00 0.00 42 1013.6